TimeCST,TemperatureF,Dew PointF,Humidity,Sea Level PressureIn,VisibilityMPH,Wind Direction,Wind SpeedMPH,Gust SpeedMPH,PrecipitationIn,Events,Conditions,WindDirDegrees,DateUTC
12:00 AM,68,58,63,29.87,12,ESE,4.6,,,,Scattered Clouds,110,2012-02-09 06:00:00
12:00 AM,68.0,59.0,73,30.02,6.2,ESE,4.6,-,N/A,,Partly Cloudy,110,2012-02-09 06:00:00
1:00 AM,68.0,57.2,68,30.01,6.2,ESE,9.2,-,N/A,,Partly Cloudy,110,2012-02-09 07:00:00
2:00 AM,68.0,59.0,73,29.98,6.2,ESE,10.4,-,N/A,,Partly Cloudy,110,2012-02-09 08:00:00
3:00 AM,68.0,59.0,73,29.96,6.2,East,12.7,-,N/A,,Partly Cloudy,90,2012-02-09 09:00:00
4:00 AM,68.0,59.0,73,29.96,6.2,East,15.0,-,N/A,,Partly Cloudy,90,2012-02-09 10:00:00
5:00 AM,68.0,55.4,64,29.98,6.2,East,13.8,25.3,N/A,,Scattered Clouds,80,2012-02-09 11:00:00
6:00 AM,68.0,55.4,64,29.98,6.2,East,13.8,25.3,N/A,,Scattered Clouds,80,2012-02-09 12:00:00
7:00 AM,68.0,57.2,68,30.00,-9999.0,ESE,13.8,-,N/A,,Clear,110,2012-02-09 13:00:00
8:00 AM,69.8,57.2,64,30.02,-9999.0,ESE,15.0,-,N/A,,Clear,110,2012-02-09 14:00:00
9:00 AM,73,55,43,29.89,12,ESE,16.1,,,,Clear,110,2012-02-09 15:00:00
9:00 AM,73.4,55.4,53,30.04,-9999.0,ESE,16.1,-,N/A,,Clear,110,2012-02-09 15:00:00
10:00 AM,77.0,53.6,44,30.04,-9999.0,East,16.1,-,N/A,,Clear,100,2012-02-09 16:00:00
11:00 AM,80.6,53.6,39,30.03,-9999.0,East,13.8,25.3,N/A,,Clear,100,2012-02-09 17:00:00
12:00 PM,82,52,25,29.84,12,East,13.8,,,,Clear,90,2012-02-09 18:00:00
12:00 PM,82.4,53.6,37,29.98,-9999.0,ENE,16.1,-,N/A,,Clear,60,2012-02-09 18:00:00
2:00 PM,80.6,55.4,42,29.95,-9999.0,ENE,18.4,-,N/A,,Clear,60,2012-02-09 20:00:00
3:00 PM,77,59,44,29.80,12,East,12.7,,,,Clear,80,2012-02-09 21:00:00
3:00 PM,77.0,59.0,54,29.95,-9999.0,East,12.7,-,N/A,,Clear,80,2012-02-09 21:00:00
4:00 PM,75.2,59.0,57,29.95,-9999.0,East,12.7,-,N/A,,Clear,80,2012-02-09 22:00:00
5:00 PM,73.4,57.2,57,29.97,6.2,ENE,12.7,-,N/A,,Mostly Cloudy,70,2012-02-09 23:00:00
6:00 PM,71,57,51,29.89,12,ENE,13.8,,,,Scattered Clouds,70,2012-02-10 00:00:00
6:00 PM,71.6,57.2,60,29.98,6.2,ENE,13.8,-,N/A,,Mostly Cloudy,70,2012-02-10 00:00:00
7:00 PM,69.8,57.2,64,30.00,6.2,ENE,11.5,-,N/A,,Mostly Cloudy,70,2012-02-10 01:00:00
8:00 PM,69.8,57.2,64,30.03,-9999.0,East,13.8,-,N/A,,Clear,80,2012-02-10 02:00:00
9:00 PM,69.8,57.2,64,30.05,-9999.0,East,11.5,-,N/A,,Clear,80,2012-02-10 03:00:00
10:00 PM,69.8,55.4,60,30.06,-9999.0,ENE,13.8,-,N/A,,Clear,70,2012-02-10 04:00:00
11:00 PM,68.0,55.4,64,30.06,-9999.0,East,11.5,-,N/A,,Clear,80,2012-02-10 05:00:00